Weather Roundup
Issued by NWS

Home | Current Version | Previous Version | Text Only | Print | Product List | Glossary On
Versions: 1 2 3 4 5 6 7 8 9 10 11 12 13 14 15 16 17 18 19 20 21 22 23 24 25 26 27 28 29 30 31 32 33 34 35 36 37 38 39 40 41 42 43 44 45 46 47 48 49 50
210
NZUS93 KARX 010910
HRRWXR

CURRENT HOURLY OBSERVATIONS ACROSS
MUCH OF THE UPPER MISSISSIPPI VALLEY
NATIONAL WEATHER SERVICE LA CROSSE WI
400 AM CDT SUN MAY 01 2016


...SOUTHEAST MINNESOTA...


CITY           SKY/WX    TMP DP  RH WIND       PRES   REMARKS
ROCHESTER      CLOUDY    42  40  92 NE12      30.06F
ROCHESTER/MAYO CLOUDY    43  41  94 N5        30.07S
WINONA         CLOUDY    43  41  93 CALM      30.08S
AUSTIN         CLOUDY    43  37  81 NE8G16    30.04F
ALBERT LEA     CLOUDY    43  43 100 NE9G16    30.06S
DODGE CENTER   CLOUDY    43  41  93 NE9       30.07S
PRESTON        CLOUDY    42  37  82 NE10G17   30.05S
OWATONNA       DRIZZLE   43  39  87 NE9       30.08F
FARIBAULT      CLOUDY    43  39  87 VRB5      30.10S
$$

...ELSEWHERE IN MINNESOTA...


CITY           SKY/WX    TMP DP  RH WIND       PRES   REMARKS
MINNEAPOLIS    CLOUDY    43  32  65 N7        30.13S
INTNL FALLS    CLEAR     34  27  75 NE6       30.27S WCI  29
DULUTH         CLEAR     33  27  78 NE7       30.21S WCI  27
RED WING       DRIZZLE   46  36  66 NE7       30.09S
REDWOOD FALLS  CLOUDY    43  30  60 VRB5      30.13R
MANKATO        CLOUDY    45  36  70 N7        30.10S
WORTHINGTON    CLOUDY    42  40  92 NE18      30.08S
FAIRMONT       CLOUDY    43  36  75 NE14      30.07S
$$

...SOUTHWEST WISCONSIN...


CITY           SKY/WX    TMP DP  RH WIND       PRES   REMARKS
LA CROSSE      CLOUDY    47  37  68 NE14      30.06R
PRAIRIE DU CHI CLOUDY    45  37  72 N5        30.00F
BOSCOBEL       CLOUDY    47  38  71 NE8       30.01S
LONE ROCK      CLOUDY    46  37  71 NE12      30.01S
PLATTEVILLE    CLOUDY    43  43  98 NE13G20   29.97S
FORT MC COY    CLOUDY    45  37  74 NE12G18   30.07S
CAMP DOUGLAS   CLOUDY    44  43  96 NE7       30.06R
MAUSTON-NEW LI CLOUDY    44  37  74 NE6       30.05S
VIROQUA        CLOUDY    43  37  80 NE13G23   30.02F
WIS DELLS      CLOUDY    42  36  78 NE12      30.02S
$$

...ELSEWHERE IN WISCONSIN...


CITY           SKY/WX    TMP DP  RH WIND       PRES   REMARKS
MILWAUKEE      DRIZZLE   42  40  92 N16       29.98R FOG
MADISON        LGT RAIN  43  39  86 NE15      30.00R
GREEN BAY      CLOUDY    45  36  70 NE15      30.06R
EAU CLAIRE     CLOUDY    45  30  55 NE10      30.10R
BLACK RVR FLS  CLOUDY    44  39  83 CALM      30.07R
MEDFORD        PTCLDY    39  33  77 NE9       30.09R WCI  33
WAUSAU         CLOUDY    45  31  58 NE5       30.07R
WIS RAPIDS     CLOUDY    46  29  51 E10       30.08R
MARSHFIELD     CLOUDY    45  31  58 NE9       30.07R
RICE LAKE      CLOUDY    40  32  73 N10       30.15R WCI  34
$$

...NORTHEAST IOWA...


CITY           SKY/WX    TMP DP  RH WIND       PRES   REMARKS
WATERLOO       CLOUDY    43  41  93 NE14      29.98R
DUBUQUE        CLOUDY    43  42  97 NE13      29.96S FOG
DECORAH        CLOUDY    43  41  93 NE9G16    30.01S
MASON CITY     CLOUDY    42  40  92 NE15      30.04R
CHARLES CITY   CLOUDY    43  43 100 NE14G23   30.01R
OELWEIN        CLOUDY    43  43 100 NE15      29.98R
$$

...ELSEWHERE IN IOWA...


CITY           SKY/WX    TMP DP  RH WIND       PRES   REMARKS
DES MOINES     CLOUDY    46  42  86 E9        29.95R
IOWA CITY      CLOUDY    45  44  97 NE7       29.95S FOG
FORT DODGE     CLOUDY    43  37  81 NE10      30.01R
MARSHALLTOWN   LGT RAIN  44  43  96 NE12      29.96R FOG
CEDAR RAPIDS   CLOUDY    44  44 100 NE9       29.93F FOG
$$

...NORTHERN ILLINOIS...


CITY           SKY/WX    TMP DP  RH WIND       PRES   REMARKS
CHICAGO-OHARE  DRIZZLE   45  44  97 NE15      29.92R FOG
CHICAGO-MIDWAY CLOUDY    46  44  93 N12       29.90F FOG
MOLINE         CLOUDY    47  44  90 NE10      29.91S FOG
ROCKFORD       CLOUDY    46  44  93 NE14      29.95F
PEORIA         CLOUDY    49  47  93 NE8       29.88S FOG
$$

NOTE: "FAIR" INDICATES FEW OR NO CLOUDS BELOW 12,000 FEET WITH NO
SIGNIFICANT WEATHER AND/OR OBSTRUCTIONS TO VISIBILITY. WIND
SPEEDS ARE IN MILES-PER-HOUR.




USA.gov is the U.S. government's official web portal to all federal, state and local government web resources and services.